• In Uzbekistan
  • List of Countries
  • For 7 days
  • Water Temperature
  • Satellite Maps
  • Weather Map
  • Weather Widgets
  • user-avatar
    Login

    Hourly Weather Ashtarak

    Today, 15 August, Wednesday

    Time Temperature Precipitation Wind Pressure Humidity
    00:00 +18°C° 0.2 mm 3 mps 657 mmHg 76%
    01:00 +18°C° 0.2 mm 2 mps 657 mmHg 76%
    02:00 +18°C° 0.2 mm 2 mps 657 mmHg 76%
    03:00 +18°C° 0 mm 1 mps 657 mmHg 79%
    04:00 +17°C° 0.3 mm 2 mps 657 mmHg 79%
    05:00 +17°C° 0.3 mm 2 mps 657 mmHg 79%
    06:00 +17°C° 0.3 mm 2 mps 657 mmHg 79%
    07:00 +19°C° 0.2 mm 2 mps 658 mmHg 72%
    08:00 +21°C° 0.2 mm 2 mps 658 mmHg 65%
    09:00 +24°C° 0 mm 2 mps 658 mmHg 57%
    10:00 +25°C° 0.1 mm 2 mps 658 mmHg 55%
    11:00 +25°C° 0.1 mm 2 mps 658 mmHg 52%
    12:00 +26°C° 0.1 mm 2 mps 658 mmHg 49%
    13:00 +27°C° 0.2 mm 3 mps 658 mmHg 47%
    14:00 +28°C° 0.2 mm 3 mps 658 mmHg 46%
    15:00 +27°C° 0 mm 3 mps 658 mmHg 48%
    16:00 +27°C° 0.1 mm 3 mps 658 mmHg 50%
    17:00 +26°C° 0.1 mm 3 mps 658 mmHg 52%
    18:00 +25°C° 0.1 mm 3 mps 658 mmHg 54%
    19:00 +24°C° 0.1 mm 3 mps 658 mmHg 60%
    20:00 +21°C° 0.1 mm 3 mps 658 mmHg 66%
    21:00 +19°C° 0.1 mm 3 mps 658 mmHg 72%
    22:00 +19°C° 0 mm 3 mps 658 mmHg 73%
    23:00 +18°C° 0 mm 2 mps 658 mmHg 74%

    Tomorrow, 16 August, Thursday

    Time Temperature Precipitation Wind Pressure Humidity
    00:00 +18°C° 0 mm 2 mps 658 mmHg 74%
    01:00 +18°C° 0 mm 2 mps 658 mmHg 75%
    02:00 +17°C° 0 mm 2 mps 658 mmHg 75%
    03:00 +17°C° 0 mm 2 mps 658 mmHg 75%
    04:00 +17°C° 0 mm 2 mps 658 mmHg 74%
    05:00 +17°C° 0 mm 2 mps 659 mmHg 74%
    06:00 +18°C° 0 mm 2 mps 659 mmHg 73%
    07:00 +20°C° 0 mm 2 mps 659 mmHg 64%
    08:00 +23°C° 0 mm 2 mps 659 mmHg 55%
    09:00 +26°C° 0 mm 2 mps 660 mmHg 46%
    10:00 +27°C° 0 mm 2 mps 659 mmHg 41%
    11:00 +29°C° 0 mm 2 mps 659 mmHg 37%
    12:00 +30°C° 0 mm 3 mps 659 mmHg 33%
    13:00 +31°C° 0 mm 3 mps 659 mmHg 32%
    14:00 +31°C° 0 mm 3 mps 659 mmHg 30%
    15:00 +33°C° 0 mm 3 mps 659 mmHg 29%
    16:00 +31°C° 0.1 mm 2 mps 659 mmHg 33%
    17:00 +30°C° 0.1 mm 2 mps 658 mmHg 37%
    18:00 +29°C° 0.1 mm 2 mps 658 mmHg 41%
    19:00 +27°C° 0.1 mm 2 mps 658 mmHg 49%
    20:00 +25°C° 0.1 mm 2 mps 658 mmHg 57%
    21:00 +22°C° 0.1 mm 3 mps 658 mmHg 65%
    22:00 +22°C° 0 mm 3 mps 658 mmHg 67%
    23:00 +21°C° 0 mm 2 mps 658 mmHg 69%

    Day after tomorrow, 17 August, Friday

    Time Temperature Precipitation Wind Pressure Humidity
    00:00 +21°C° 0 mm 2 mps 658 mmHg 71%
    01:00 +20°C° 0 mm 2 mps 658 mmHg 71%
    02:00 +20°C° 0 mm 2 mps 657 mmHg 71%
    03:00 +20°C° 0 mm 2 mps 657 mmHg 71%
    04:00 +20°C° 0 mm 2 mps 657 mmHg 70%
    05:00 +20°C° 0 mm 2 mps 657 mmHg 70%
    06:00 +20°C° 0 mm 2 mps 657 mmHg 69%
    07:00 +23°C° 0 mm 1 mps 658 mmHg 58%
    08:00 +26°C° 0 mm 1 mps 658 mmHg 48%
    09:00 +28°C° 0 mm 1 mps 659 mmHg 38%
    10:00 +30°C° 0 mm 1 mps 658 mmHg 34%
    11:00 +31°C° 0 mm 2 mps 658 mmHg 30%
    12:00 +34°C° 0 mm 2 mps 658 mmHg 26%
    13:00 +34°C° 0 mm 2 mps 658 mmHg 25%
    14:00 +35°C° 0 mm 2 mps 658 mmHg 24%
    15:00 +35°C° 0 mm 2 mps 657 mmHg 23%
    16:00 +34°C° 0 mm 2 mps 657 mmHg 27%
    17:00 +32°C° 0 mm 2 mps 656 mmHg 32%
    18:00 +31°C° 0 mm 2 mps 656 mmHg 37%
    19:00 +29°C° 0.1 mm 2 mps 656 mmHg 45%
    20:00 +27°C° 0.1 mm 3 mps 656 mmHg 53%
    21:00 +25°C° 0.1 mm 3 mps 656 mmHg 61%
    22:00 +24°C° 0 mm 3 mps 656 mmHg 63%
    23:00 +24°C° 0 mm 3 mps 656 mmHg 64%

    18 August, Saturday

    Time Temperature Precipitation Wind Pressure Humidity
    00:00 +22°C° 0 mm 3 mps 656 mmHg 66%
    01:00 +21°C° 0 mm 3 mps 655 mmHg 66%
    02:00 +21°C° 0 mm 3 mps 655 mmHg 67%
    03:00 +21°C° 0 mm 2 mps 655 mmHg 68%
    04:00 +20°C° 0 mm 2 mps 655 mmHg 68%
    05:00 +20°C° 0 mm 2 mps 655 mmHg 68%
    06:00 +20°C° 0 mm 2 mps 655 mmHg 69%
    07:00 +24°C° 0 mm 2 mps 655 mmHg 60%
    08:00 +26°C° 0 mm 2 mps 656 mmHg 52%
    09:00 +28°C° 0 mm 1 mps 656 mmHg 43%
    10:00 +29°C° 0 mm 2 mps 656 mmHg 39%
    11:00 +31°C° 0 mm 2 mps 656 mmHg 35%
    12:00 +32°C° 0 mm 2 mps 656 mmHg 30%
    13:00 +34°C° 0.1 mm 2 mps 655 mmHg 29%
    14:00 +34°C° 0.1 mm 2 mps 655 mmHg 28%
    15:00 +34°C° 0.1 mm 2 mps 655 mmHg 28%
    16:00 +32°C° 0.6 mm 2 mps 654 mmHg 32%
    17:00 +31°C° 0.6 mm 3 mps 654 mmHg 37%
    18:00 +30°C° 0.6 mm 3 mps 654 mmHg 41%
    19:00 +28°C° 0.2 mm 3 mps 654 mmHg 48%
    20:00 +26°C° 0.2 mm 3 mps 655 mmHg 54%
    21:00 +23°C° 0.2 mm 4 mps 655 mmHg 61%
    22:00 +22°C° 0.5 mm 3 mps 655 mmHg 64%
    23:00 +22°C° 0.5 mm 3 mps 655 mmHg 66%

    19 August, Sunday

    Time Temperature Precipitation Wind Pressure Humidity
    00:00 +21°C° 0.5 mm 3 mps 655 mmHg 69%
    01:00 +20°C° 0.2 mm 3 mps 655 mmHg 71%
    02:00 +20°C° 0.2 mm 3 mps 655 mmHg 74%
    03:00 +19°C° 0.2 mm 3 mps 654 mmHg 76%
    04:00 +19°C° 0.4 mm 3 mps 655 mmHg 76%
    05:00 +19°C° 0.4 mm 2 mps 655 mmHg 76%
    06:00 +19°C° 0.4 mm 2 mps 655 mmHg 76%
    07:00 +21°C° 0.1 mm 2 mps 655 mmHg 69%
    08:00 +24°C° 0.1 mm 2 mps 655 mmHg 61%
    09:00 +25°C° 0.1 mm 2 mps 656 mmHg 54%
    10:00 +27°C° 0.6 mm 2 mps 656 mmHg 49%
    11:00 +28°C° 0.6 mm 2 mps 655 mmHg 45%
    12:00 +29°C° 0.6 mm 2 mps 655 mmHg 40%
    13:00 +30°C° 0.6 mm 2 mps 655 mmHg 39%
    14:00 +30°C° 0.6 mm 2 mps 655 mmHg 38%
    15:00 +30°C° 0.6 mm 2 mps 655 mmHg 38%
    16:00 +30°C° 0.8 mm 2 mps 655 mmHg 41%
    17:00 +29°C° 0.8 mm 3 mps 655 mmHg 44%
    18:00 +28°C° 0.8 mm 3 mps 655 mmHg 47%
    19:00 +26°C° 0.7 mm 3 mps 655 mmHg 53%
    20:00 +24°C° 0.7 mm 3 mps 655 mmHg 59%
    21:00 +22°C° 0.7 mm 3 mps 655 mmHg 65%
    22:00 +21°C° 0.4 mm 3 mps 655 mmHg 67%
    23:00 +21°C° 0.4 mm 3 mps 655 mmHg 69%

    20 August, Monday

    Time Temperature Precipitation Wind Pressure Humidity
    00:00 +20°C° 0.4 mm 3 mps 656 mmHg 72%
    01:00 +20°C° 0.1 mm 3 mps 656 mmHg 73%
    02:00 +19°C° 0.1 mm 3 mps 656 mmHg 74%
    03:00 +19°C° 0.1 mm 3 mps 656 mmHg 76%
    04:00 +19°C° 0 mm 3 mps 656 mmHg 75%
    05:00 +19°C° 0 mm 3 mps 656 mmHg 75%
    06:00 +19°C° 0 mm 3 mps 656 mmHg 75%
    07:00 +21°C° 0 mm 2 mps 657 mmHg 68%
    08:00 +23°C° 0 mm 2 mps 657 mmHg 61%
    09:00 +25°C° 0 mm 2 mps 658 mmHg 54%
    10:00 +26°C° 0 mm 2 mps 658 mmHg 50%
    11:00 +27°C° 0 mm 3 mps 657 mmHg 47%
    12:00 +28°C° 0 mm 3 mps 657 mmHg 43%
    13:00 +29°C° 0 mm 3 mps 657 mmHg 42%
    14:00 +29°C° 0 mm 3 mps 657 mmHg 41%
    15:00 +30°C° 0 mm 3 mps 657 mmHg 40%
    16:00 +29°C° 0.1 mm 4 mps 657 mmHg 44%
    17:00 +28°C° 0.1 mm 4 mps 657 mmHg 48%
    18:00 +27°C° 0.1 mm 4 mps 657 mmHg 53%
    19:00 +25°C° 0.1 mm 4 mps 657 mmHg 58%
    20:00 +22°C° 0.1 mm 4 mps 657 mmHg 63%
    21:00 +21°C° 0.1 mm 4 mps 657 mmHg 68%
    22:00 +20°C° 0 mm 3 mps 657 mmHg 69%
    23:00 +20°C° 0 mm 3 mps 657 mmHg 70%
    Show more